ONEWEB-0147 (47293 NORAD) Tracking and Keplerian Element Data

This shows tracking and keplerian element data for the satellite.

Feedback or suggestion? Click here.




ElementValue
Catalog47293
NameONEWEB-0147
Epoch Orbit433
Epoch Day15.88706768
Epoch Year2021
RAAN29.6691
Inclination87.3911
Eccentricity0.0011422
Argument of Perigee147.8242
Mean Anonmoly212.3697
Mean Motion15.11924462
Decay Rate-0.00431733
L11 47293U 20100AM 21015.88706768 -.00431733 00000-0 -26730-1 0 9999
L22 47293 87.3911 29.6691 0011422 147.8242 212.3697 15.11924462 4332

Live tracking and technical data element details for ONEWEB-0147 (NORAD 47293). ONEWEB-0147 can be tracked NOW for your location showing map with azimuth and elevation plus other details from your city location.

Track the satellite on the map from your city or location and see movement details for azimuth, elevation, latitude, longitude, range, height, and movement on the map or in text.







IsCatalogInMostPopularTable: catalog: 47293, numindb: 12
Update: records affected: 1



GetName: 47293 ONEWEB-0147

Hit Count: updated at: Sun, 17 Jan 2021 09:16:42 GMT